"Pseudo-MPEC" for P10Nyut

Created 2019 May 21 9:07:21 UT using Find_Orb

Click here for an explanation of pseudo-MPECs

 
 Astrometry: 
     P10Nyut  C2019 05 07.DMQQ;Xuv1Astrometry[q9Sv!UA==YTyredacted;/$]2nR]VPdF51
     P10Nyut  C2019 05 07a(%?#U*^MclickCkIxE;=$ogMTyD+'2[lherescKlA'wY.tK1s%VF51
     P10Nyut  C2019 05 07hC489UemT/I_k[ufor7.explanation8b!YCR9QL=ECs4@bL4=k[F51
     P10Nyut  C2019 05 09.32774 14 56 36.26 -07 50 17.4    ~598M 20.8 GVNEOCPI52
     P10Nyut  C2019 05 09.32871 14 56 37.42 -07 50 04.6    ~598M 20.9 GVNEOCPI52
     P10Nyut  C2019 05 09.33065 14 56 39.81 -07 49 37.7    ~598M 20.9 GVNEOCPI52

Station data:
(F51) Pan-STARRS 1, Haleakala  (N20.707235 W156.255910)  US/Hawaii.
   Observers N. Primak, A. Schultz, S. Watters, J. Thiel, T. Goggia. Measurer
   PS1 Science Consortium. 1.8-m Ritchey-Chrétien + CCD.
(I52) Steward Observatory, Mt. Lemmon Station  (N32.442547 W110.788920)
   US/Arizona.  Observers T. A. Pruyne, B. M. Africano, E. J. Christensen, G.
   A. Farneth, D. C. Fuls, A. R. Gibbs, A. D. Grauer, H. Groeller, J. A.
   Johnson, R. A. Kowalski, S. M. Larson, G. J. Leonard, R. L. Seaman, F. C.
   Shelly. 1.0-m reflector + CCD.

Orbital elements:  P10Nyut
   Perihelion 2019 May 1.679347 +/- 1.3 TT = 16:18:15 (JD 2458605.179347)
Epoch 2019 May  9.0 TT = JDT 2458612.5   Earth MOID: 0.0272   AutoNEOCP
M   3.76175857 +/- 0.9              (J2000 ecliptic)
n   0.51385563 +/- 0.0398           Peri.  353.68784 +/- 1.3
a   1.54374405 +/- 0.0797           Node   226.13159 +/- 0.021
e   0.3297756 +/- 0.0328            Incl.    7.02597 +/- 0.49
P   1.92/700.57d           H 28.1   G  0.15   U 10.6  
q 1.03465491 +/- 0.00283    Q 2.05283319 +/- 0.158
From 6 observations 2019 May 7-9 (46.3 hr); mean residual 1".57
Residuals in arcseconds: 
190507 F51  .16-  .21+    190507 F51  .09+  .17-    190509 I52  .14+  1.0-    
190507 F51  .07+  .03-    190509 I52  1.6+  2.8-    190509 I52  1.7-  3.9+    

Ephemerides (geocentric):
Date (UTC) HH   RA              Dec         delta   r     elong  mag " sig PA
---- -- -- --  -------------   -----------  ------ ------ -----  --- ---- ---
2019 05 21 09  17 40 38.647   +13 46 51.42  .05409 1.0520 136.6 23.5 3298  64
2019 05 21 10  17 40 54.505   +13 48 33.86  .05421 1.0521 136.6 23.5 3305  64
2019 05 21 11  17 41 10.289   +13 50 15.69  .05433 1.0521 136.5 23.5 3311  64
2019 05 21 12  17 41 26.000   +13 51 56.89  .05445 1.0522 136.5 23.5 3318  64
2019 05 21 13  17 41 41.639   +13 53 37.47  .05457 1.0523 136.4 23.5 3324  64
2019 05 21 14  17 41 57.205   +13 55 17.44  .05469 1.0523 136.4 23.5 3331  64
2019 05 21 15  17 42 12.700   +13 56 56.80  .05482 1.0524 136.3 23.5 3337  64
2019 05 21 16  17 42 28.124   +13 58 35.56  .05494 1.0525 136.3 23.5 3344  64
2019 05 21 17  17 42 43.476   +14 00 13.71  .05506 1.0526 136.3 23.5 3350  64
2019 05 21 18  17 42 58.759   +14 01 51.26  .05518 1.0526 136.2 23.5 3356  64
2019 05 21 19  17 43 13.970   +14 03 28.22  .05530 1.0527 136.2 23.5 3363  64
2019 05 21 20  17 43 29.113   +14 05 04.58  .05543 1.0528 136.1 23.5 3369  64
2019 05 21 21  17 43 44.185   +14 06 40.36  .05555 1.0529 136.1 23.5 3375  64
2019 05 21 22  17 43 59.189   +14 08 15.55  .05567 1.0529 136.1 23.5 3381  64
2019 05 21 23  17 44 14.124   +14 09 50.16  .05579 1.0530 136.0 23.5 3388  64
2019 05 22 00  17 44 28.990   +14 11 24.20  .05591 1.0531 136.0 23.5 3394  64
2019 05 22 01  17 44 43.789   +14 12 57.66  .05604 1.0532 135.9 23.5 3400  64
2019 05 22 02  17 44 58.520   +14 14 30.55  .05616 1.0532 135.9 23.6 3406  64
2019 05 22 03  17 45 13.183   +14 16 02.88  .05628 1.0533 135.9 23.6 3412  64
2019 05 22 04  17 45 27.780   +14 17 34.64  .05641 1.0534 135.8 23.6 3418  64
2019 05 22 05  17 45 42.310   +14 19 05.84  .05653 1.0534 135.8 23.6 3424  64
2019 05 22 06  17 45 56.774   +14 20 36.49  .05665 1.0535 135.8 23.6 3430  64
2019 05 22 07  17 46 11.172   +14 22 06.58  .05677 1.0536 135.7 23.6 3436  64
2019 05 22 08  17 46 25.505   +14 23 36.13  .05690 1.0537 135.7 23.6 3442  64
2019 05 22 09  17 46 39.772   +14 25 05.13  .05702 1.0537 135.6 23.6 3448  64
2019 05 22 10  17 46 53.975   +14 26 33.58  .05714 1.0538 135.6 23.6 3454  64
2019 05 22 11  17 47 08.113   +14 28 01.50  .05727 1.0539 135.6 23.6 3459  64
2019 05 22 12  17 47 22.187   +14 29 28.88  .05739 1.0540 135.5 23.6 3465  64
2019 05 22 13  17 47 36.197   +14 30 55.73  .05751 1.0541 135.5 23.6 3471  64
2019 05 22 14  17 47 50.143   +14 32 22.04  .05764 1.0541 135.5 23.6 3477  64
2019 05 22 15  17 48 04.027   +14 33 47.83  .05776 1.0542 135.4 23.6 3482  64
2019 05 22 16  17 48 17.847   +14 35 13.10  .05789 1.0543 135.4 23.6 3488  64
2019 05 22 17  17 48 31.605   +14 36 37.85  .05801 1.0544 135.4 23.6 3494  64
2019 05 22 18  17 48 45.301   +14 38 02.08  .05813 1.0544 135.3 23.6 3499  64
2019 05 22 19  17 48 58.935   +14 39 25.79  .05826 1.0545 135.3 23.7 3505  64
2019 05 22 20  17 49 12.508   +14 40 49.00  .05838 1.0546 135.3 23.7 3511  64
2019 05 22 21  17 49 26.019   +14 42 11.70  .05851 1.0547 135.2 23.7 3516  64
2019 05 22 22  17 49 39.469   +14 43 33.89  .05863 1.0547 135.2 23.7 3522  64
2019 05 22 23  17 49 52.859   +14 44 55.58  .05875 1.0548 135.2 23.7 3527  64
2019 05 23 00  17 50 06.188   +14 46 16.77  .05888 1.0549 135.1 23.7 3533  64
2019 05 23 01  17 50 19.458   +14 47 37.47  .05900 1.0550 135.1 23.7 3538  64
2019 05 23 02  17 50 32.668   +14 48 57.67  .05913 1.0551 135.1 23.7 3543  64
2019 05 23 03  17 50 45.818   +14 50 17.38  .05925 1.0551 135.0 23.7 3549  64
2019 05 23 04  17 50 58.910   +14 51 36.60  .05938 1.0552 135.0 23.7 3554  64
2019 05 23 05  17 51 11.943   +14 52 55.35  .05950 1.0553 135.0 23.7 3559  64
2019 05 23 06  17 51 24.917   +14 54 13.60  .05963 1.0554 135.0 23.7 3565  64
2019 05 23 07  17 51 37.833   +14 55 31.39  .05975 1.0554 134.9 23.7 3570  64
2019 05 23 08  17 51 50.692   +14 56 48.69  .05988 1.0555 134.9 23.7 3575  64